Location: Bathsheba
(13.2167°N, 59.5167°W)
Time: 23:56:23
(UTC+00:00)

Cosmos 1674 Rocket - Pass Details

Date: 18 September 2020
Orbit: 603 x 630 km, 82.5° (Epoch: 20 October)

Event Time Altitude Azimuth Distance (km) Brightness Sun altitude
Rises 22:28:36 0° 354° (N) 2,909 7.1 -8.6°
Reaches altitude 10° 22:30:50 10° 354° (N) 2,000 6.3 -9.1°
Maximum altitude 22:35:16 83° 266° (W) 634 3.7 -10.2°
Drops below altitude 10° 22:39:41 10° 179° (S) 1,989 6.1 -11.3°
Sets 22:41:54 0° 178° (S) 2,891 6.9 -11.8°
